TimeEST,TemperatureF,Dew PointF,Humidity,Sea Level PressureIn,VisibilityMPH,Wind Direction,Wind SpeedMPH,Gust SpeedMPH,PrecipitationIn,Events,Conditions,WindDirDegrees,DateUTC
12:54 AM,36.0,19.0,50,29.84,10.0,NW,16.1,26.5,N/A,,Overcast,310,2012-12-22 05:54:00
1:54 AM,36.0,19.0,50,29.86,10.0,WNW,19.6,26.5,N/A,,Overcast,290,2012-12-22 06:54:00
2:54 AM,34.0,19.0,54,29.88,10.0,WNW,17.3,31.1,N/A,,Scattered Clouds,300,2012-12-22 07:54:00
3:54 AM,34.0,18.0,52,29.90,10.0,WNW,18.4,28.8,N/A,,Mostly Cloudy,300,2012-12-22 08:54:00
4:54 AM,34.0,17.1,50,29.92,10.0,WNW,27.6,38.0,N/A,,Scattered Clouds,300,2012-12-22 09:54:00
5:54 AM,34.0,18.0,52,29.94,10.0,WNW,17.3,23.0,N/A,,Scattered Clouds,300,2012-12-22 10:54:00
6:54 AM,33.1,18.0,54,29.96,10.0,NW,25.3,35.7,N/A,,Partly Cloudy,320,2012-12-22 11:54:00
7:54 AM,33.1,18.0,54,29.99,10.0,NW,23.0,27.6,N/A,,Partly Cloudy,320,2012-12-22 12:54:00
8:54 AM,35.1,17.1,48,30.02,10.0,NNW,16.1,31.1,N/A,,Clear,330,2012-12-22 13:54:00
9:54 AM,37.9,16.0,41,30.05,10.0,NW,17.3,25.3,N/A,,Clear,320,2012-12-22 14:54:00
10:54 AM,41.0,16.0,36,30.05,10.0,NW,13.8,-,N/A,,Clear,320,2012-12-22 15:54:00
11:54 AM,44.1,15.1,31,30.02,10.0,NW,19.6,26.5,N/A,,Clear,310,2012-12-22 16:54:00
12:54 PM,46.9,14.0,27,29.99,10.0,WNW,15.0,-,N/A,,Clear,300,2012-12-22 17:54:00
1:54 PM,48.0,10.9,22,29.99,10.0,WNW,13.8,24.2,N/A,,Clear,300,2012-12-22 18:54:00
2:54 PM,51.1,10.9,20,29.99,10.0,West,12.7,-,N/A,,Clear,280,2012-12-22 19:54:00
3:54 PM,50.0,10.0,20,30.00,10.0,WNW,11.5,-,N/A,,Clear,290,2012-12-22 20:54:00
4:54 PM,46.9,12.0,24,30.03,10.0,West,6.9,-,N/A,,Clear,270,2012-12-22 21:54:00
5:54 PM,43.0,10.0,26,30.06,10.0,NW,6.9,-,N/A,,Clear,310,2012-12-22 22:54:00
6:54 PM,43.0,10.0,26,30.09,10.0,NNW,5.8,-,N/A,,Clear,330,2012-12-22 23:54:00
7:54 PM,39.9,10.9,31,30.09,10.0,NNW,4.6,-,N/A,,Clear,330,2012-12-23 00:54:00
8:54 PM,37.9,10.9,33,30.09,10.0,Calm,Calm,-,N/A,,Clear,0,2012-12-23 01:54:00
9:54 PM,37.0,12.0,36,30.10,10.0,Calm,Calm,-,N/A,,Clear,0,2012-12-23 02:54:00
10:54 PM,33.1,14.0,46,30.11,10.0,Calm,Calm,-,N/A,,Clear,0,2012-12-23 03:54:00
11:54 PM,35.1,14.0,42,30.09,10.0,Calm,Calm,-,N/A,,Clear,0,2012-12-23 04:54:00